Location: Chevoux
(46.3801°N, 4.9476°E)
Time: 21:31:54
(UTC+00:00)

TIGRISAT - Visible Passes

Search period start: 24 June 2021 00:00
Search period end: 04 July 2021 00:00
Orbit: 605 x 687 km, 97.7° (Epoch: 24 June)

Date Brightness Start Highest point End Pass type
(mag) Time Alt. Az. Time Alt. Az. Time Alt. Az.
26 Jun ? 20:14:04 10° NNW 20:17:42 24° WNW 20:21:16 10° WSW visible
27 Jun ? 20:40:25 10° NNW 20:42:53 15° WNW 20:45:19 10° W visible
30 Jun ? 20:19:30 10° NNW 20:22:53 21° WNW 20:26:11 10° WSW visible
01 Jul ? 20:46:03 10° NNW 20:48:02 13° WNW 20:49:59 10° W visible
